Location: Arpaise
(41.0333°N, 14.7333°E)
Time: 01:20:27
(UTC+00:00)

Cosmos 1727 Rocket - Pass Details

Date: 05 July 2020
Orbit: 962 x 996 km, 82.9° (Epoch: 11 August)

Event Time Altitude Azimuth Distance (km) Brightness Sun altitude
Rises 23:38:43 0° 346° (NNW) 3,672 8.1 -25.8°
Reaches altitude 10° 23:41:18 10° 341° (NNW) 2,726 7.1 -25.8°
Maximum altitude 23:47:13 47° 270° (W) 1,270 4.4 -25.6°
Enters shadow 23:48:07 44° 245° (WSW) 1,322 4.4 -25.6°
